Wind_Speed
8 9 8 9 11 12 13 14 14 14 15 16 16 16 16 15 11 5 6 8 11 15 15 16 14 11 7 4 6 6 8 12 17 15 11 4 5 3 5 7 8 10 4 6 23
7 8 8 8 10 11 12 13 15 15 15 16 16 17 18 12 7 12 9 8 10 12 12 10 7 9 6 5 6 13 13 20 12 15 10 6 6 6 5 9 9 9 14 9 26
7 7 7 8 9 11 12 12 13 15 17 16 16 17 17 9 4 7 10 11 11 11 11 10 7 4 8 10 11 8 17 17 16 15 10 6 6 5 9 8 17 18 17 19 30
6 7 8 8 9 10 12 12 13 15 16 17 17 16 15 8 2 7 12 14 14 9 9 7 3 3 7 12 14 13 14 19 21 15 9 10 6 6 12 21 12 11 17 22 33
6 7 7 7 8 9 10 12 12 13 14 16 16 18 16 6 5 10 14 15 13 11 7 7 3 3 8 7 13 17 17 17 20 23 24 25 21 19 15 19 19 15 12 26 31
8 9 8 8 8 9 10 12 12 13 14 15 16 17 11 5 10 11 14 16 15 12 8 5 3 5 7 9 12 10 14 15 19 24 23 19 23 22 18 20 17 18 18 25 30
10 9 9 9 9 9 10 12 13 13 14 13 12 12 9 7 11 14 15 12 12 14 11 7 5 4 6 8 11 14 18 19 21 16 15 19 27 28 21 19 12 16 18 23 27
11 9 8 8 9 9 10 12 13 13 10 9 10 9 2 12 18 16 15 11 8 10 12 8 7 7 6 10 12 8 13 17 13 23 19 13 26 21 29 23 22 19 18 22 28
7 6 5 5 7 9 10 12 13 7 7 7 8 4 3 10 19 15 12 13 12 9 10 9 6 7 7 8 11 11 15 17 15 18 15 24 23 17 22 20 24 23 21 23 24
4 4 3 4 7 9 11 12 6 2 9 4 9 2 9 15 15 14 11 10 9 11 5 3 2 5 6 8 11 10 14 17 20 14 9 24 26 21 21 29 28 24 23 23 26
4 2 2 4 6 8 9 4 4 2 9 5 4 2 10 21 16 8 14 10 4 3 6 3 4 10 13 14 18 18 19 21 18 13 13 14 15 14 21 26 29 32 26 25 28
4 3 1 3 5 7 9 4 6 3 1 4 5 4 10 17 9 8 15 5 4 6 6 3 12 11 8 14 16 18 18 19 16 19 21 21 26 18 16 19 27 29 30 27 24
6 4 1 1 3 6 7 7 6 8 1 2 3 4 9 15 6 9 9 5 4 4 3 6 14 16 8 11 16 18 19 18 13 15 21 16 25 23 18 28 29 34 32 30 30
6 4 2 0 2 5 4 5 5 5 1 8 2 1 10 13 3 8 4 5 3 6 5 10 5 8 10 16 14 16 16 17 18 11 10 8 20 25 22 23 26 34 38 33 28
7 5 3 1 2 2 2 4 5 2 1 7 5 7 17 3 9 0 13 4 9 11 3 7 12 14 17 16 9 11 13 15 16 15 13 16 11 15 19 25 24 25 40 40 32
7 6 4 2 1 2 2 4 2 1 0 3 5 10 10 3 5 9 5 6 8 7 6 21 16 12 11 12 11 10 9 12 15 13 13 20 15 21 17 24 24 24 35 36 32
8 6 4 1 0 1 3 3 1 2 3 5 4 8 9 6 7 4 7 9 5 7 9 16 6 5 8 7 9 11 8 4 6 7 12 16 16 25 17 25 27 25 32 34 31
10 7 4 2 1 1 4 1 2 1 4 2 4 9 4 9 3 9 8 6 3 4 10 8 8 4 5 6 6 8 6 5 8 9 12 9 6 8 3 12 22 26 37 47 45
11 8 5 2 1 1 2 3 2 5 2 3 3 3 4 4 5 7 5 3 3 5 7 6 8 9 9 4 2 3 6 4 6 15 11 10 11 10 4 5 11 21 29 35 40
13 9 6 4 1 0 3 1 2 4 3 2 2 1 4 6 7 7 4 3 3 2 10 4 11 7 3 4 13 5 3 5 4 6 12 9 8 9 11 16 14 16 25 27 33
13 5 6 5 3 1 2 2 3 7 4 2 1 2 4 4 3 4 5 5 1 8 11 10 6 7 11 5 10 3 4 4 4 7 5 7 4 2 9 13 16 10 17 26 31
11 2 7 7 1 2 2 4 4 4 4 3 3 5 4 3 5 4 5 4 4 7 9 4 5 6 18 13 3 3 9 5 5 4 5 2 3 5 9 12 12 5 3 20 30
9 4 7 8 2 2 1 3 3 5 4 4 5 7 3 3 5 6 6 7 13 7 5 7 3 7 6 2 4 6 5 8 10 6 4 3 3 6 7 5 4 10 12 15 28
8 3 3 5 3 5 5 3 2 4 3 4 3 3 3 5 7 6 7 8 12 9 8 7 4 8 10 15 15 11 17 17 4 5 7 4 6 12 13 9 7 7 16 17 21
8 4 6 3 4 4 3 6 4 4 5 5 3 8 5 5 6 6 5 13 9 2 12 5 6 6 13 18 15 15 13 13 3 6 4 6 7 12 13 7 5 7 13 18 20
10 7 6 4 8 7 2 5 7 3 6 5 6 2 9 7 8 9 9 8 7 6 12 5 4 7 8 6 12 7 10 14 8 6 6 8 5 8 16 8 7 7 11 13 16
17 13 9 7 5 4 4 5 7 8 7 6 7 3 8 15 16 19 16 16 17 12 9 5 6 5 4 13 15 1 13 10 6 13 8 5 5 10 12 12 13 7 8 11 14
Wind_Direction
34 25 24 27 22 15 12 10 13 13 7 1 358 1 1 2 13 61 32 341 332 312 294 279 276 288 302 266 221 206 229 231 224 214 225 185 202 195 234 228 201 203 213 225 183
37 29 31 26 16 11 8 8 8 9 5 359 356 356 358 5 61 54 40 358 343 330 321 311 298 291 251 233 218 216 230 235 234 226 226 205 244 228 192 217 235 218 221 207 182
35 26 23 19 12 9 6 3 2 2 0 356 355 359 357 11 96 33 2 343 333 339 343 331 318 279 242 236 220 222 241 241 242 231 221 235 244 223 227 221 231 230 207 192 184
15 4 5 1 359 3 3 360 358 357 355 351 351 2 2 9 42 352 349 350 349 327 339 348 337 248 242 231 229 249 242 252 244 239 237 231 243 231 239 245 223 240 212 204 191
339 333 335 336 345 351 354 357 355 352 349 348 348 358 8 49 34 350 358 357 354 349 333 0 346 284 253 270 259 249 253 254 252 252 252 259 251 258 251 258 251 258 226 215 205
315 317 321 323 327 333 344 349 347 346 343 344 346 358 22 76 10 9 360 357 359 4 351 355 2 302 276 272 267 304 286 276 259 254 252 253 252 244 246 262 247 248 230 209 208
299 300 307 317 323 326 337 339 339 338 335 337 346 5 56 39 8 347 337 339 345 349 344 333 318 311 319 280 268 280 277 276 254 257 248 259 255 242 246 246 240 236 221 209 205
290 292 296 305 321 331 336 332 332 330 334 343 349 360 90 11 358 352 333 325 327 336 325 331 299 288 258 280 288 274 268 256 248 244 242 225 257 241 236 241 244 237 222 212 209
288 287 295 312 330 339 338 330 328 345 354 360 15 47 64 2 359 3 349 341 326 333 324 299 289 270 269 266 273 241 256 249 248 244 242 222 258 248 236 231 239 239 223 217 211
292 270 292 325 340 345 342 333 347 80 11 44 23 54 8 346 358 4 358 340 330 329 353 354 222 263 254 240 244 256 257 253 251 261 279 253 250 251 251 232 234 238 230 219 215
256 252 279 337 347 353 2 354 4 17 41 42 22 19 334 348 354 18 3 336 346 343 343 5 283 258 267 259 267 275 273 271 274 281 302 279 286 294 262 238 236 237 230 223 221
219 205 239 341 355 2 16 62 55 4 357 23 19 4 344 343 322 7 2 358 339 319 319 289 275 296 275 265 261 260 264 270 288 265 269 277 276 261 268 273 254 238 231 222 219
188 181 198 347 7 10 26 48 27 13 31 344 357 330 333 325 311 327 358 333 301 307 298 257 269 302 278 269 253 248 249 260 251 294 282 283 273 265 249 252 251 252 243 228 214
179 175 176 42 33 4 27 25 7 9 82 354 359 349 335 319 259 322 9 321 280 299 312 275 281 274 277 262 261 269 253 255 256 268 262 237 267 254 244 247 237 236 238 233 217
174 173 161 102 27 18 13 15 345 22 26 348 319 328 338 3 323 255 333 300 281 286 276 283 295 297 283 273 255 255 264 261 257 248 287 272 265 264 246 245 247 232 226 225 220
178 166 163 128 17 30 21 353 341 255 343 351 316 350 346 330 336 310 335 310 282 295 256 265 275 282 263 272 261 271 288 272 257 249 253 260 248 272 248 249 240 234 220 219 210
181 172 170 158 89 38 350 343 324 90 359 337 335 337 333 320 328 335 332 352 349 321 325 321 288 254 236 260 237 250 269 279 235 219 256 255 253 247 251 240 232 218 208 210 207
182 172 177 158 86 32 344 55 78 61 256 328 313 320 334 356 303 323 328 351 32 349 306 335 325 214 175 248 262 207 214 252 291 245 272 196 247 252 255 292 277 262 215 201 197
180 173 179 174 144 353 354 59 187 196 193 300 318 5 339 341 327 337 318 307 330 19 7 308 278 299 269 224 193 135 209 257 266 259 273 256 246 283 328 320 313 281 247 204 187
179 173 189 191 185 294 72 152 193 211 218 51 28 22 319 318 332 341 310 215 295 29 345 281 292 291 326 240 224 225 345 271 211 248 234 231 240 243 337 316 312 323 232 192 181
173 173 191 180 164 99 106 203 210 225 206 168 229 265 245 297 256 278 265 274 160 336 325 285 249 298 297 234 293 213 248 218 259 244 257 270 238 46 295 292 284 302 209 164 163
171 166 181 171 70 44 142 191 168 193 198 226 245 257 269 261 273 270 267 255 325 344 314 306 290 282 287 315 303 286 275 238 259 334 250 306 284 20 320 305 260 105 101 143 154
167 151 174 178 181 158 255 247 204 193 198 197 225 218 214 280 292 229 268 271 311 339 322 344 290 296 295 180 197 301 267 245 276 249 247 257 1 348 335 322 359 107 108 120 143
160 146 150 187 160 135 170 206 207 213 230 221 242 199 221 266 233 274 289 301 326 327 313 299 256 284 300 301 302 297 307 297 259 282 321 9 300 330 353 359 22 86 113 115 125
174 186 164 168 211 165 166 162 162 203 212 223 238 217 194 273 284 243 274 306 301 9 349 338 267 279 288 284 282 308 306 312 313 304 335 326 328 353 343 353 360 92 112 122 130
176 162 134 104 141 139 197 207 197 210 195 219 228 209 205 239 231 290 304 304 284 307 338 335 275 314 287 251 299 308 355 357 351 347 342 311 360 351 353 17 57 83 102 110 128
198 166 149 151 152 163 209 193 209 183 223 227 220 244 248 257 268 272 272 268 272 297 308 295 321 312 273 324 318 82 357 352 344 10 319 342 333 337 356 10 21 70 94 117 132
Height
1560 1559 1558 1557 1556 1554 1553 1551 1549 1547 1545 1542 1540 1538 1535 1533 1531 1529 1529 1533 1531 1529 1527 1527 1528 1529 1530 1530 1530 1530 1525 1519 1518 1520 1516 1518 1517 1518 1519 1520 1519 1518 1518 1519 1519
1560 1560 1559 1558 1557 1555 1553 1551 1549 1548 1546 1543 1540 1538 1535 1533 1532 1531 1533 1533 1532 1529 1528 1527 1528 1528 1529 1529 1528 1525 1518 1512 1513 1513 1512 1515 1516 1516 1517 1518 1519 1517 1516 1517 1517
1561 1561 1560 1559 1557 1556 1554 1552 1550 1548 1546 1543 1541 1538 1535 1534 1535 1535 1534 1532 1531 1529 1528 1527 1526 1528 1527 1525 1523 1518 1514 1513 1515 1514 1513 1513 1513 1514 1513 1514 1512 1513 1515 1513 1516
1561 1561 1560 1559 1557 1556 1554 1552 1551 1549 1546 1543 1541 1539 1536 1534 1536 1536 1535 1533 1531 1529 1528 1527 1527 1527 1524 1520 1518 1516 1515 1515 1515 1514 1513 1511 1511 1510 1510 1507 1507 1509 1512 1514 1513
1561 1560 1559 1558 1557 1555 1554 1552 1550 1548 1546 1543 1541 1539 1536 1536 1538 1536 1535 1533 1530 1529 1528 1528 1527 1527 1524 1520 1518 1513 1513 1512 1513 1511 1510 1510 1507 1507 1505 1505 1507 1506 1506 1508 1511
1559 1559 1558 1557 1556 1555 1553 1551 1549 1547 1545 1543 1541 1539 1537 1538 1538 1536 1535 1533 1530 1529 1528 1528 1528 1528 1526 1522 1519 1512 1512 1510 1508 1507 1507 1507 1502 1504 1502 1502 1502 1501 1502 1502 1507
1558 1557 1557 1556 1555 1554 1552 1550 1548 1546 1544 1542 1540 1539 1538 1543 1539 1536 1534 1532 1531 1529 1528 1527 1527 1528 1526 1521 1518 1514 1510 1504 1503 1506 1503 1504 1493 1490 1499 1499 1498 1498 1498 1499 1501
1556 1555 1555 1555 1554 1553 1551 1549 1547 1545 1543 1541 1540 1539 1540 1540 1539 1535 1532 1530 1530 1529 1527 1526 1526 1527 1525 1522 1515 1512 1506 1502 1495 1498 1499 1503 1475 1484 1492 1493 1492 1494 1496 1495 1496
1553 1554 1554 1553 1553 1552 1550 1547 1545 1544 1542 1540 1540 1539 1542 1541 1538 1535 1531 1529 1528 1527 1526 1525 1526 1525 1523 1520 1514 1507 1499 1491 1492 1492 1491 1490 1479 1483 1485 1487 1487 1488 1489 1491 1494
1552 1553 1553 1552 1552 1551 1549 1546 1544 1544 1543 1541 1540 1542 1542 1542 1538 1535 1532 1530 1528 1526 1526 1525 1524 1522 1519 1517 1508 1502 1499 1496 1495 1491 1489 1481 1473 1477 1480 1480 1480 1482 1484 1485 1488
1551 1551 1552 1551 1551 1550 1548 1546 1548 1547 1544 1545 1546 1544 1543 1541 1536 1535 1532 1530 1528 1527 1525 1525 1522 1515 1512 1511 1508 1506 1504 1501 1497 1494 1496 1487 1482 1478 1476 1476 1473 1472 1475 1477 1480
1550 1551 1551 1551 1551 1550 1548 1548 1548 1550 1547 1547 1545 1544 1543 1541 1537 1534 1533 1532 1529 1526 1527 1523 1514 1509 1511 1510 1508 1506 1506 1505 1504 1496 1492 1486 1474 1479 1480 1473 1469 1467 1468 1469 1475
1549 1550 1551 1551 1550 1550 1549 1548 1548 1546 1548 1548 1546 1544 1544 1542 1539 1534 1534 1532 1529 1527 1526 1526 1508 1509 1511 1507 1504 1500 1501 1501 1504 1500 1492 1487 1471 1469 1468 1469 1467 1463 1462 1462 1464
1549 1550 1550 1550 1552 1550 1549 1548 1549 1547 1547 1550 1546 1546 1543 1539 1537 1533 1532 1533 1529 1525 1524 1518 1511 1510 1506 1503 1501 1500 1495 1496 1497 1500 1490 1476 1451 1450 1448 1449 1451 1451 1452 1457 1460
1548 1550 1550 1549 1551 1550 1550 1547 1549 1549 1538 1552 1548 1545 1542 1542 1539 1533 1532 1530 1526 1524 1528 1513 1509 1507 1503 1496 1498 1496 1494 1493 1491 1491 1495 1483 1469 1434 1438 1435 1433 1435 1440 1447 1453
1548 1549 1550 1550 1551 1550 1548 1547 1549 1548 1537 1554 1549 1548 1543 1540 1538 1534 1532 1530 1526 1524 1522 1513 1508 1508 1499 1494 1495 1493 1492 1487 1485 1483 1482 1465 1468 1421 1430 1423 1423 1426 1431 1438 1443
1547 1548 1550 1550 1551 1549 1548 1548 1547 1539 1562 1556 1554 1551 1548 1542 1538 1537 1533 1529 1529 1525 1512 1505 1498 1500 1500 1495 1491 1493 1495 1487 1481 1482 1462 1441 1442 1419 1411 1411 1410 1415 1420 1428 1435
1547 1547 1550 1551 1550 1549 1548 1549 1544 1578 1567 1560 1556 1552 1548 1547 1539 1537 1533 1531 1531 1533 1525 1512 1500 1494 1494 1492 1487 1490 1492 1479 1464 1453 1438 1435 1436 1418 1413 1414 1413 1408 1406 1407 1417
1545 1547 1550 1550 1550 1549 1550 1549 1551 1563 1561 1560 1555 1553 1553 1551 1548 1540 1534 1535 1531 1534 1534 1521 1498 1491 1491 1492 1494 1487 1484 1476 1473 1459 1460 1428 1418 1411 1412 1410 1411 1405 1403 1403 1409
1544 1546 1548 1549 1549 1550 1550 1552 1558 1560 1559 1559 1557 1564 1562 1557 1550 1545 1538 1532 1531 1532 1532 1523 1510 1489 1487 1490 1485 1485 1486 1472 1467 1446 1435 1413 1415 1398 1416 1411 1410 1403 1395 1401 1404
1544 1547 1547 1548 1550 1550 1550 1556 1559 1557 1558 1559 1560 1559 1557 1557 1555 1552 1541 1532 1531 1530 1528 1522 1515 1492 1490 1481 1475 1482 1474 1474 1470 1447 1423 1413 1400 1428 1423 1416 1412 1404 1398 1400 1401
1543 1547 1546 1548 1552 1555 1554 1558 1555 1556 1556 1557 1558 1556 1555 1554 1549 1549 1538 1534 1530 1531 1528 1522 1515 1500 1481 1476 1476 1480 1474 1470 1459 1433 1432 1426 1409 1422 1422 1416 1408 1402 1403 1399 1401
1540 1545 1546 1548 1548 1553 1557 1556 1553 1554 1554 1556 1556 1555 1554 1552 1551 1545 1537 1529 1530 1530 1526 1523 1511 1499 1472 1476 1476 1474 1469 1464 1457 1449 1425 1421 1411 1420 1422 1418 1410 1404 1404 1404 1403
1538 1543 1545 1546 1546 1547 1554 1554 1552 1552 1553 1554 1553 1553 1554 1551 1549 1541 1534 1528 1527 1527 1526 1524 1513 1505 1496 1487 1484 1474 1465 1457 1455 1442 1430 1427 1426 1421 1417 1413 1407 1407 1408 1410 1410
1534 1536 1536 1543 1545 1546 1548 1550 1550 1551 1552 1552 1549 1548 1550 1549 1546 1543 1536 1530 1524 1525 1525 1522 1513 1505 1498 1488 1483 1476 1468 1458 1451 1447 1434 1433 1427 1423 1422 1418 1417 1415 1411 1413 1416
1530 1532 1535 1539 1542 1544 1547 1548 1547 1549 1549 1548 1547 1544 1547 1546 1540 1537 1535 1533 1527 1522 1521 1520 1510 1505 1491 1481 1477 1473 1465 1458 1454 1451 1443 1439 1431 1430 1425 1422 1421 1420 1417 1420 1421
1523 1525 1526 1540 1542 1543 1540 1541 1542 1544 1542 1543 1543 1544 1543 1539 1538 1536 1534 1532 1528 1528 1524 1519 1514 1506 1484 1474 1468 1465 1465 1466 1464 1463 1459 1441 1442 1435 1427 1426 1426 1425 1427 1424 1426